Location: Stockholm
(59.3333°N, 18.0500°E)
Time: 02:29:31
(UTC+02:00)

ISS - Pass Details

Date: 15 May 2021
Orbit: 417 x 422 km, 51.6° (Epoch: 16 June)

Event Time Altitude Azimuth Distance (km) Brightness Sun altitude
Rises 02:03:20 0° 259° (WSW) 2,372 -0.2 -10.1°
Reaches altitude 10° 02:05:48 10° 241° (WSW) 1,508 -1.4 -10.0°
Maximum altitude 02:08:18 19° 193° (SSW) 1,061 -2.4 -9.9°
Drops below altitude 10° 02:10:49 10° 145° (SE) 1,507 -1.3 -9.8°
Sets 02:13:17 0° 128° (SE) 2,371 -0.1 -9.7°
